User: anonymous   Login
Location: Peebles
(55.6412°N, 3.1714°W)
Time: 09:32:02
(UTC+01:00)
Language:

COSMOS 1275 DEB - Orbit

View from above orbital plane
View from above orbital plane
View from above satellite
View from above satellite

Ground track
Ground track

The orbit data is extracted from the following two-line orbital elements,

1 42220U 81053UL  22176.41230527  .00001971  00000-0  77729-3 0  9992
2 42220  82.9194  59.3421 0031994 111.2402 249.2206 14.28413556446587
Epoch (UTC): 25 June 2022 09:53:43
Eccentricity: 0.0031994
inclination: 82.9194°
perigee height: 774 km
apogee height: 820 km
right ascension of ascending node: 59.3421°
argument of perigee: 111.2402°
revolutions per day: 14.28413556
mean anomaly at epoch: 249.2206°
orbit number at epoch: 44658

The dashed part of the orbit path shows where the satellite is in the earth's shadow,  

DLR